Home > Weather > Włocławek > Past weeks

Flag for Poland Weather for the Past 2 Weeks in Włocławek, Poland

Now
34 °F

Fog.


Feels Like: 31 °F
Forecast: 35 / 44 °F
Wind: 3 mph from East

Location: Plock

Current Time: Feb 13, 2016 at 10:11:42 AM

Latest Report: Feb 13, 2016 at 9:00 AM


Visibility: 2 mi

Pressure: 29.54 "Hg

Humidity: 95%

Dew point: 33 °F

Location of WłocławekLocation

Historic Weather in Włocławek — Graph

°F

Włocławek Temperature Yesterday

Maximum temperature yesterday: 41 °F (at 3:00 PM)
Minimum temperature yesterday: 32 °F (at 11:00 PM)
Average temperature yesterday: 37 °F

High & Low Weather Summary for the Past Weeks

 TemperatureHumidityPressure
High51 °F (Feb 2, 3:00 PM)96% (Feb 1, 9:00 PM)30.22 "Hg (Feb 1, 9:00 PM)
Low32 °F (Feb 12, 11:00 PM)54% (Feb 8, 2:00 PM)29.21 "Hg (Feb 10, 5:00 AM)
Average40 °F78%29.77 "Hg
* Reported Jan 29 8:00 AM — Feb 13 8:00 AM, Włocławek, Weather by CustomWeather, © 2016

Note: Actual official high and low records may vary slightly from our data, if they occured in-between our weather recording intervals... More about our weather records

Advertising

Włocławek Weather History for the Previous 24 Hours

 ConditionsComfort  
Time TempWeatherWind HumidityBarometerVisibility
8:00 AM
Sat, Feb 13
34 °FFog.3 mph94%29.56 "Hg3 mi
7:00 AM34 °FFog.2 mph95%29.56 "Hg3 mi
6:00 AM34 °FFog.2 mph95%29.57 "Hg4 mi
5:00 AM33 °FFog.3 mph95%29.59 "Hg3 mi
1:00 AM33 °FFog.2 mph93%29.63 "Hg4 mi
11:00 PM
Fri, Feb 12
32 °FFog.2 mph91%29.65 "Hg4 mi
10:00 PM33 °FFog.2 mph86%29.65 "Hg4 mi
9:00 PM33 °FFog.2 mph84%29.65 "Hg5 mi
8:00 PM34 °FFog.2 mph83%29.66 "Hg4 mi
7:00 PM36 °FFog.2 mph77%29.67 "Hg6 mi
6:00 PM37 °FFog.2 mph79%29.67 "Hg5 mi
5:00 PM38 °FChilly.2 mph77%29.67 "Hg6 mi
4:00 PM40 °FQuite cool.3 mph68%29.66 "Hg22 mi
3:00 PM41 °FQuite cool.5 mph69%29.65 "Hg12 mi
2:00 PM41 °FQuite cool.5 mph72%29.65 "Hg13 mi
1:00 PM40 °FChilly.6 mph73%29.66 "Hg13 mi
12:00 PM40 °FChilly.5 mph79%29.67 "Hg8 mi
11:00 AM37 °FFog.5 mph85%29.67 "Hg7 mi
10:00 AM37 °FFog.5 mph86%29.67 "Hg6 mi
Weather by CustomWeather, © 2016

See weather overviewHow to use our weather pages